Showing default

HULIANWANG DIGUI-03, 62325

Orbit data source: Space-Track

HULIANWANG DIGUI-03, 62325 is a payload satellite owned by Zhongguo Xingwang (CN) in LEO that was launched on Mon, 16 Dec 2024 UTC via a CHANG ZHENG 5B/YZ-2 launch vehicle from the Wenchang Satellite Launch Center (WSC). Payload-class satellites include a variety of spacecraft equipped with specific instruments for various scientific and technological missions. These include communications satellites like Starlink; space stations such as the ISS; scientific satellites like the Hubble; Earth observation satellites from companies like Planet Labs, Umbra, and HawkEye 360; GPS; miniature CubeSats for education and research; and military/defense satellites.

Loading next visibility...
Identifier
62325, 2024-240C
Orbit
LEO
Country
Flag of CNCN / PRC
Related business
Manufacturer
CAST?
Mission
Operational Civil Communications
Bus & Motor
XINGWANG CL, Unknown motor
Mass
~800 kg wet, ~800 kg dry
Launch date (UTC)
2024-12-16 (1 year ago)
Launch vehicle
CHANG ZHENG 5B/YZ-2
Launch site
Wenchang Satellite Launch Center (WSC)
Object type
Payload
Rocket body
Debris
Shape & HBR
Box + 2 Pan, 5.0 m
Radar Cross Section
5.935 m², Large (>1 m²)

Expand to show TLE details & history
Last TLE update: 3 hours ago

TLE from 3 hours ago
0 HULIANWANG DIGUI-03
1 62325U 24240C   26126.51462341  .00000067  00000-0  12093-3 0  9994
2 62325  86.5006 357.2086 0001652  73.8585 286.2730 13.24406715 67123
Epoch: 2026-05-06T12:21Z
TLE epoch observation values (Epoch: 2026-05-06T12:21:03.462Z)
Latitude
-0.00011°
Longitude
-52.42985°
Altitude
1,170.48 km
Speed
7.268 km/s
True Right ascension
23h 48m 50s
True Declination
0° 00' 00"
Sunlit
Object was in daylight at epoch
Visualization orbit readout
Latitude
Unknown
Longitude
Unknown
Altitude
Unknown
Speed
Unknown
Apparent Right ascension
Unknown
Apparent Declination
Unknown
Sunlit
N/A
Visualization observer readout
Local Sidereal Time
23:45:45
Azimuth
Unknown
Elevation
Unknown
Doppler factor
Unknown
Orbital elements
Apogee altitude
1,166.301 km
Perigee altitude
1,163.808 km
Semi-major axis
7,543.192 km
Eccentricity
0.00017
Inclination
86.5006°
RAAN
357.2086°
Arg. of periapsis
73.8585°
True anomaly
286.25483°
Mean anomaly
286.273°
Eccentric anomaly
286.26391°
Mean motion
3.31292 °/min
Orbital period
108.67 mins
BSTAR
0.00012093
Loading maneuver chart data...
Computing Atmospheric mass density...
Loading historical data...
Loading historical data...
Loading historical data...
Loading historical data...
Loading historical data...
Loading historical data...
Loading historical data...

Documentation

Showing up to 5 results
|